Amendola, Italy

8:45 PM CEST on March 29, 2017 (GMT +0200)
Amendola Mil

Weather History for LIBA - October, 2013

Change the Weather History Date:

Wednesday, October 23, 2013

  Actual Average Record
Temperature  
Mean Temperature 67 °F -  
Max Temperature 76 °F 64 °F 77 °F (2001)
Min Temperature 57 °F 47 °F 46 °F (1998)
Cooling Degree Days 2    
Growing Degree Days 17 (Base 50)    
Moisture  
Dew Point 58 °F    
Average Humidity 69    
Maximum Humidity 94    
Minimum Humidity 36    
Precipitation  
Precipitation 0.00 in 0.07 in - ()
Sea Level Pressure  
Sea Level Pressure 30.11 in    
Wind  
Wind Speed 5 mph ()    
Max Wind Speed 13 mph    
Max Gust Speed -    
Visibility 4.8 miles    
Events      
Averages and records for this station are not official NWS values.
T = Trace of Precipitation, MM = Missing Value Source: Averaged Metar Reports

Daily Weather History Graph

Daily Weather History Graph

Search for Another Location

Airport or City:

Trip Planner

Search our weather history database for the weather conditions in past years. The results will help you decide how hot, cold, wet, or windy it might be!

Date:

Astronomy

Oct. 23, 2013 Rise Set
Actual Time 7:18 AM CEST 6:04 PM CEST
Civil Twilight 6:49 AM CEST 6:32 PM CEST
Nautical Twilight 6:17 AM CEST 7:04 PM CEST
Astronomical Twilight 5:45 AM CEST 7:36 PM CEST
Moon 9:18 PM CEST (10/23) 11:23 AM CEST (10/23)
Length of Visible Light 11h 42m
Length of Day
10h 45m
Waning Gibbous, 81% of the Moon is Illuminated
Oct 23
Waning Gibbous
Oct 27
Last Quarter
Nov 3
New
Nov 10
First Quarter
Nov 17
Full

Hourly Weather History & Observations

Time (CEST) Temp. Dew Point Humidity Pressure Visibility Wind Dir Wind Speed Gust Speed Precip Events Conditions
6:55 AM 60.8 °F 55.4 °F 82% 30.09 in 1.9 mi East 3.5 mph - N/A   Scattered Clouds
7:55 AM 57.2 °F 51.8 °F 82% 30.09 in 3.1 mi East 3.5 mph - N/A   Partly Cloudy
8:00 AM 58 °F 52 °F 73% 30.12 in 3 mi East 3.5 mph - -   Mist
8:55 AM 57.2 °F 51.8 °F 82% 30.12 in 4.3 mi East 3.5 mph - N/A   Unknown
9:55 AM 64.4 °F 57.2 °F 77% 30.12 in - East 3.5 mph - N/A   Clear
10:55 AM 68.0 °F 55.4 °F 64% 30.12 in - East 3.5 mph - N/A   Clear
11:00 AM 68 °F 56 °F 57% 30.14 in 9 mi East 3.5 mph - -  
11:55 AM 73.4 °F 55.4 °F 53% 30.12 in - East 4.6 mph - N/A   Clear
12:55 PM 75.2 °F 55.4 °F 50% 30.12 in - East 5.8 mph - N/A   Clear
1:55 PM 77.0 °F 55.4 °F 47% 30.12 in - ENE 9.2 mph - N/A   Clear
2:00 PM 77 °F 55 °F 36% 30.12 in 9 mi ENE 9.2 mph - -  
2:55 PM 77.0 °F 62.6 °F 61% 30.09 in - ENE 11.5 mph - N/A   Clear
3:55 PM 75.2 °F 62.6 °F 65% 30.09 in - ENE 12.7 mph - N/A   Clear
4:55 PM 71.6 °F 64.4 °F 78% 30.06 in - East 10.4 mph - N/A   Clear
5:00 PM 72 °F 65 °F 72% 30.09 in 7 mi East 10.4 mph - -   Clear
5:55 PM 68.0 °F 66.2 °F 94% 30.09 in 4.3 mi ENE 10.4 mph - N/A   Unknown
6:55 PM 68.0 °F 62.6 °F 83% 30.09 in 3.7 mi ENE 6.9 mph - N/A   Unknown
7:55 PM 66.2 °F 60.8 °F 83% 30.09 in 3.7 mi ENE 4.6 mph - N/A   Unknown
8:00 PM 66 °F 61 °F 80% 30.12 in 4 mi ENE 4.6 mph - -   Mist